Regional Weather Roundup
Issued by NWS Grand Forks, ND

Home | Current Version | Previous Version | Graphics & Text | Print | Product List | Glossary On
Versions: 1 2 3 4 5 6 7 8 9 10 11 12 13 14 15 16 17 18 19 20 21 22 23 24 25 26 27 28 29 30 31 32 33 34 35 36 37 38 39 40 41 42 43 44 45 46 47 48 49 50
000
ASUS43 KFGF 221210
RWRFGF
PRAIRIE TO PINES  WEATHER ROUNDUP
NATIONAL WEATHER SERVICE EASTERN NORTH DAKOTA/GRAND FORKS ND
700 AM CDT FRI SEP 22 2017

 **SATELLITE DATA USED TO AUGMENT SKY COVER AT AUTOMATED STATIONS**
 *****  WEATHER ACROSS EASTERN NORTH DAKOTA  *****

CITY           SKY/WX    TMP DP  RH WIND       PRES   REMARKS
GRAND FORKS    FAIR      55  52  89 N14       29.80R
6HR MIN TEMP:  55; 6HR MAX TEMP:  62;

GRAND FRKS AFB MOCLDY    55  50  83 N14       29.83R
DEVILS LAKE    FAIR      51  47  86 N16       29.85S
6HR MIN TEMP:  51; 6HR MAX TEMP:  57;

FARGO          MOCLDY    65  65 100 N9        29.74S
WAHPETON ARPT  FAIR      63  57  82 E6        29.72S
$$

 ***** WEATHER ACROSS CENTRAL AND WESTERN NORTH DAKOTA  *****

CITY           SKY/WX    TMP DP  RH WIND       PRES   REMARKS
BISMARCK       CLOUDY    55  42  61 NE16G25   29.81S
6HR MIN TEMP:  54; 6HR MAX TEMP:  58;

MINOT          FAIR      47  40  76 N13       29.91F
6HR MIN TEMP:  47; 6HR MAX TEMP:  52;

JAMESTOWN      FAIR      56  50  80 N18       29.75F
6HR MIN TEMP:  54; 6HR MAX TEMP:  59;

MINOT AFB      FAIR      46  40  78 N9        29.91F
GARRISON         N/A     49  39  68 NE20G26   29.87R
WILLISTON      CLOUDY    46  39  76 N12       29.93F
6HR MIN TEMP:  46; 6HR MAX TEMP:  51; 6HR PCP:  0.01;

DICKINSON      CLOUDY    50  37  61 NE20G29   29.85F
6HR MIN TEMP:  49; 6HR MAX TEMP:  51;

HETTINGER      CLOUDY    51  37  58 NE26G35   29.80F
6HR MIN TEMP:  48; 6HR MAX TEMP:  52;

$$

 *****  OTHER AIRPORT OBSERVATIONS IN OUR AREA  *****

CITY           SKY/WX    TMP DP  RH WIND       PRES   REMARKS
WALHALLA       FAIR     N/A N/A N/A N13       29.89S
GRAFTON AIRPOR FAIR      54  52  94 N18G26    29.84F
VALLEY CITY AR CLOUDY    55  55 100 N9G17     29.78S
CANDO          FAIR      48  48 100 N14       29.89S
CAVALIER APRT  FAIR      52  48  87 N16       29.87F
GWINNER        CLOUDY    66  66 100 N10       29.71S FOG
SHEYENNE NWR     N/A     66  66 100 NE7       29.95S
ROLLA          FAIR      46  41  81 N15       29.90F
 ***** THE ABOVE OBSERVATIONS ARE NON NWS ARE NOT QUALITY
       CONTROLLED AND MAY MIS-REPORT RAIN FOR SNOW...
$$

  *****  WEATHER ACROSS NORTHERN MINNESOTA  *****

CITY           SKY/WX    TMP DP  RH WIND       PRES   REMARKS
FLAG ISLAND    FAIR      61  57  88 CALM      29.83R
WARROAD        FAIR      55  52  88 NW6       29.84R
ROSEAU           N/A     55  52  88 N6        29.84S
HALLOCK          N/A     57  52  82 N10       29.85R
THF RVR FALLS  CLOUDY    63  59  87 NE10      29.80S
6HR MIN TEMP:  60; 6HR MAX TEMP:  65;

BAUDETTE       FAIR      58  58 100 E3        29.83R
6HR MIN TEMP:  58; 6HR MAX TEMP:  62;

WASKISH        FAIR      61  61 100 CALM      29.81F FOG
CROOKSTON      CLOUDY    59  55  88 N13       29.77F
STEPHEN NDAWN    N/A     55  54  94 N15         N/A
GREENBUSH NDAW   N/A     55  52  88 N8          N/A
$$
  *****  WEATHER ACROSS CENTRAL AND WEST MINNESOTA  *****

CITY           SKY/WX    TMP DP  RH WIND       PRES   REMARKS
FOSSTON        FAIR      61  61 100 N5        29.79R FOG
BEMIDJI        FOG       62  61  99 E5        29.79R VSB 1
6HR MIN TEMP:  60; 6HR MAX TEMP:  64;

PARK RAPIDS    CLOUDY    69  67  93 SE7       29.82R
6HR MIN TEMP:  66; 6HR MAX TEMP:  70; 6HR PCP:  0.01;

ELBOW LAKE     FAIR      65  62  89 SE10      29.74R
WADENA         FAIR      63  63 100 CALM      29.79R
DETROIT LAKES    N/A     68  66  94 E7        29.78R FOG
MOORHEAD       FAIR      64  63  94 N7        29.75R FOG
FERGUS FALLS   FAIR      64  61  88 E8        29.74R
MORRIS MN      FAIR      72  68  88 E12       29.74R
STAPLES        FAIR      64  64 100 SE5       29.78F
$$
  *****  WEATHER ELSEWHERE ACROSS MINNESOTA  *****

CITY           SKY/WX    TMP DP  RH WIND       PRES   REMARKS
DULUTH         MOCLDY    60  59  96 S6        29.89R THUNDER
6HR MIN TEMP:  58; 6HR MAX TEMP:  60; 6HR PCP: TRACE;

INTRNTL FALLS  FAIR      60  59  96 CALM      29.83R
6HR MIN TEMP:  59; 6HR MAX TEMP:  63; 6HR PCP:  0.01;

ELY            FAIR      64  63  94 S3        29.87R
CLOQUET        TSTM      63  61  94 NW15G36   29.93R VSB 1
WHEATON        FAIR      70  64  83 SE8       29.73R
BRAINERD       FAIR      66  65  96 E7        29.78F
6HR MIN TEMP:  66; 6HR MAX TEMP:  71; 6HR PCP:  1.31;

HIBBING        TSTM      63  61  93 W14G31    29.95R
6HR MIN TEMP:  54; 6HR MAX TEMP:  60; 6HR PCP:  0.01;

ALEXANDRIA     FAIR      67  63  87 SE9       29.79S
6HR MIN TEMP:  67; 6HR MAX TEMP:  75; 6HR PCP: TRACE;

SAINT CLOUD    CLOUDY    72  71  97 N9G16     29.81R THUNDER
6HR MIN TEMP:  72; 6HR MAX TEMP:  76; 6HR PCP:  0.03;

MINNEAPOLIS    MOCLDY    75  71  87 S9        29.84R
6HR MIN TEMP:  73; 6HR MAX TEMP:  77;

$$

  *****  WEATHER ACROSS SOUTH DAKOTA  *****

CITY           SKY/WX    TMP DP  RH WIND       PRES   REMARKS
SIOUX FALLS    FAIR      77  72  84 S15       29.73S
6HR MIN TEMP:  76; 6HR MAX TEMP:  81;

BROOKINGS      FAIR      73  71  93 S16       29.73S
WATERTOWN      FAIR      71  71 100 SE10      29.70S
6HR MIN TEMP:  71; 6HR MAX TEMP:  73;

HURON          FAIR      74  71  91 SE12      29.63S
6HR MIN TEMP:  73; 6HR MAX TEMP:  76;

SISSETON         N/A     69  68  96 SE3       29.70S
ABERDEEN       FAIR      62  62 100 N6        29.67S
6HR MIN TEMP:  62; 6HR MAX TEMP:  70;

MITCHELL       FAIR      76  71  85 SE14      29.65S
PIERRE         FAIR      61  60  97 S5        29.57S
6HR MIN TEMP:  61; 6HR MAX TEMP:  67;

MOBRIDGE       MOCLDY    62  52  69 NE21      29.63F
RAPID CITY     CLOUDY    52  37  58 N26G36    29.77
$$

  *****  SOME WEATHER IN NEARBY STATES *****

CITY           SKY/WX    TMP DP  RH WIND       PRES   REMARKS
GLASGOW MT     CLOUDY    44  36  73 NW8       30.01S
6HR MIN TEMP:  44; 6HR MAX TEMP:  48; 6HR PCP: TRACE;

GREAT FALLS MT LGT SNOW  34  32  92 N8        30.07R FOG
6HR MIN TEMP:  34; 6HR MAX TEMP:  42; 6HR PCP:  0.03;

CHEYENNE WY    FAIR      45  36  70 N7        29.83S
6HR MIN TEMP:  45; 6HR MAX TEMP:  57;

SCOTTSBLUFF NE FAIR      44  40  85 NW5       29.78R
6HR MIN TEMP:  44; 6HR MAX TEMP:  62;

OMAHA NE       FAIR      77  69  76 S15       29.83S
6HR MIN TEMP:  77; 6HR MAX TEMP:  81;

DES MOINES IA  FAIR      74  69  85 SE9       29.91R
6HR MIN TEMP:  74; 6HR MAX TEMP:  79;

DAVENPORT IA   FAIR      71  67  87 S7        30.04R
6HR MIN TEMP:  70; 6HR MAX TEMP:  75;

CHICAGO IL     FAIR      73  67  81 S5        30.06R
6HR MIN TEMP:  71; 6HR MAX TEMP:  80;

EAU CLAIRE WI  FAIR      73  68  84 S12       29.90S
6HR MIN TEMP:  72; 6HR MAX TEMP:  75;

LA CROSSE WI   FAIR      76  69  79 S16       29.92F
6HR MIN TEMP:  72; 6HR MAX TEMP:  76;

$$

  *****  SOME NATIONAL WEATHER *****

CITY           SKY/WX    TMP DP  RH WIND       PRES   REMARKS
LA GUARDIA NY  PTSUNNY   68  51  54 N13G23    30.01R
6HR MIN TEMP:  68; 6HR MAX TEMP:  71;

RALEIGH NC     FAIR      64  64 100 CALM      30.10R
6HR MIN TEMP:  61; 6HR MAX TEMP:  65;

ATLANTA GA     FAIR      71  66  84 E9        30.08R
6HR MIN TEMP:  69; 6HR MAX TEMP:  73;

NEW ORLEANS LA FAIR      75  73  93 CALM      29.98R
6HR MIN TEMP:  74; 6HR MAX TEMP:  78;

OKLAHOMA CITY  FAIR      70  68  93 S12       29.93R
6HR MIN TEMP:  70; 6HR MAX TEMP:  77;

ALBUQUERQUE NM FAIR      61  36  39 SE9       29.96S
6HR MIN TEMP:  60; 6HR MAX TEMP:  70;

SALT LAKE CITY CLOUDY    45  39  79 S3        29.84R
6HR MIN TEMP:  41; 6HR MAX TEMP:  45; 6HR PCP:  0.01;

LOS ANGELES CA FAIR      60  53  77 VRB5      29.84R
6HR MIN TEMP:  58; 6HR MAX TEMP:  64;

BOISE ID       CLOUDY



USA.gov is the U.S. government's official web portal to all federal, state and local government web resources and services.